Location: Simi Valley
(34.2690°N, 118.7810°W)
Time: 09:47:19
(UTC-07:00)

SAR-Lupe-1 - Visible Passes

Search period start: 21 May 2018 00:00
Search period end: 31 May 2018 00:00
Orbit: 480 x 485 km, 98.1° (Epoch: 14 May)

Date Brightness Start Highest point End Pass type
(mag) Time Alt. Az. Time Alt. Az. Time Alt. Az.
21 May 7.1 23:34:01 14° N 23:34:01 14° N 23:34:34 10° N visible
22 May 7.0 23:08:45 12° NNE 23:08:45 12° NNE 23:09:06 10° NNE visible
24 May 7.5 00:17:48 10° NNW 00:17:48 10° NNW 00:17:49 10° NNW visible
24 May 7.2 23:52:31 14° NNW 23:52:31 14° NNW 23:53:06 10° NNW visible
25 May 6.9 23:27:15 15° N 23:27:15 15° N 23:27:58 10° N visible
26 May 7.0 23:01:59 11° NNE 23:01:59 11° NNE 23:02:16 10° NNE visible
28 May 7.3 00:11:01 13° NNW 00:11:01 13° NNW 00:11:26 10° NNW visible
28 May 7.0 23:45:45 16° N 23:45:45 16° N 23:46:34 10° N visible
29 May 6.8 23:20:28 15° NNE 23:20:28 15° NNE 23:21:16 10° NNE visible
30 May 7.0 22:55:12 10° NE 22:55:12 10° NE 22:55:15 10° NE visible
